This is the latest recevied weather packets stored in our database for station/object IU1INZ-13. If no packets are shown the sender has not sent any weather packets the latest 1 day(s).
| Time | Temp. | Humidity | Pressure | Rain* | Wind** | Luminosity | Snow |
|---|---|---|---|---|---|---|---|
| 1778022035 | 12.22° C | 91% | 1012.4 hPa | 0 mm | 0.45 m/s, 65° | - | - |
| 1778021134 | 12.22° C | 91% | 1012.6 hPa | 0 mm | 0 m/s | - | - |
| 1778020231 | 12.22° C | 91% | 1012.5 hPa | 0 mm | 0.45 m/s, 0° | - | - |
| 1778019333 | 12.22° C | 91% | 1012.5 hPa | 0.25 mm | 0.45 m/s, 43° | - | - |
| 1778018431 | 12.22° C | 91% | 1012.7 hPa | 0.25 mm | 0.89 m/s, 54° | - | - |
| 1778017537 | 12.22° C | 90% | 1012.8 hPa | 0 mm | 0.89 m/s, 27° | - | - |
| 1778016633 | 12.22° C | 90% | 1013 hPa | 0 mm | 0 m/s | - | - |
| 1778015732 | 12.78° C | 89% | 1013.1 hPa | 0 mm | 0.89 m/s, 56° | - | - |
| 1778014831 | 12.78° C | 89% | 1013.2 hPa | 0 mm | 0.45 m/s, 54° | - | - |
| 1778013930 | 12.78° C | 89% | 1013.1 hPa | 0 mm | 0.89 m/s, 41° | - | - |
| 1778013033 | 12.78° C | 88% | 1013.2 hPa | 0 mm | 0.45 m/s, 58° | - | - |
| 1778012134 | 12.78° C | 88% | 1013.1 hPa | 0 mm | 1.34 m/s, 65° | - | - |
| 1778011236 | 12.78° C | 87% | 1013.1 hPa | 0 mm | 1.34 m/s, 60° | - | - |
| 1778010332 | 12.78° C | 87% | 1013.2 hPa | 0 mm | 0.45 m/s, 52° | - | - |
| 1778009431 | 12.78° C | 86% | 1013 hPa | 0 mm | 0.89 m/s, 56° | - | - |
| 1778008535 | 13.33° C | 85% | 1012.8 hPa | 0 mm | 0.89 m/s, 56° | - | - |
| 1778007645 | 13.33° C | 84% | 1012.6 hPa | 0 mm | 2.68 m/s, 60° | - | - |
| 1778006732 | 13.89° C | 83% | 1012.5 hPa | 0 mm | 0.89 m/s, 58° | - | - |
| 1778005843 | 13.89° C | 81% | 1012.5 hPa | 0 mm | 0.89 m/s, 69° | - | - |
| 1778004932 | 13.89° C | 80% | 1012.5 hPa | 0 mm | 0 m/s | - | - |
| 1778004032 | 14.44° C | 80% | 1012.5 hPa | 0 mm | 0 m/s | - | - |
| 1778003134 | 14.44° C | 79% | 1012.4 hPa | 0 mm | 0.45 m/s, 60° | - | - |
| 1778002238 | 14.44° C | 78% | 1012.6 hPa | 0 mm | 0.45 m/s, 40° | - | - |
| 1778001334 | 14.44° C | 77% | 1012.6 hPa | 0 mm | 0.45 m/s, 145° | - | - |
| 1778000435 | 14.44° C | 77% | 1012.5 hPa | 0 mm | 0.89 m/s, 57° | - | - |
* Rain latest hour (hover to see other rain measurements)
** Current wind speed in m/s (hover to see current wind gust speed)